Back to catalog

STARLINK-6297

AliveCommunicationsVLEO
NORAD 57352·PAYLOAD·🇺🇸 United States

Launched Jul 16, 2023 from Cape Canaveral Space Force Station

Loading…

Next Passes (next 24 hours)

TLE

FreshSource: CelesTrak SupGP

Epoch: Sep 14, 2026, 22:21 UTC

1 57352C 23099AA  26257.93173611  .00028582  00000+0  10354-2 0  2574
2 57352  42.9992 253.0275 0001049 257.0333 347.4376 15.27559243    18

Track STARLINK-6297 in real time with AllMySat

Download on the App Store